TimeAKST,TemperatureF,Dew PointF,Humidity,Sea Level PressureIn,VisibilityMPH,Wind Direction,Wind SpeedMPH,Gust SpeedMPH,PrecipitationIn,Events,Conditions,WindDirDegrees,DateUTC
12:53 AM,32.0,14.0,48,29.57,10.0,NNE,15.0,26.5,N/A,,Clear,30,2013-02-26 09:53:00
1:53 AM,33.1,14.0,46,29.56,10.0,NNE,13.8,20.7,N/A,,Clear,20,2013-02-26 10:53:00
2:53 AM,32.0,16.0,52,29.57,10.0,NE,6.9,-,N/A,,Clear,40,2013-02-26 11:53:00
3:53 AM,30.9,12.0,46,29.54,10.0,NNE,15.0,23.0,N/A,,Clear,20,2013-02-26 12:53:00
4:53 AM,30.0,12.0,47,29.53,10.0,NNE,16.1,21.9,N/A,,Partly Cloudy,20,2013-02-26 13:53:00
5:53 AM,30.0,12.0,47,29.50,10.0,NNE,19.6,28.8,N/A,,Mostly Cloudy,20,2013-02-26 14:53:00
6:53 AM,30.0,10.0,43,29.48,10.0,ENE,12.7,27.6,N/A,,Partly Cloudy,70,2013-02-26 15:53:00
7:53 AM,30.0,10.9,45,29.48,10.0,NE,15.0,-,N/A,,Overcast,40,2013-02-26 16:53:00
8:53 AM,30.9,10.0,42,29.47,10.0,NNE,11.5,-,N/A,,Overcast,30,2013-02-26 17:53:00
9:53 AM,32.0,10.0,40,29.46,10.0,NE,11.5,23.0,N/A,,Overcast,40,2013-02-26 18:53:00
10:53 AM,33.1,10.9,40,29.45,10.0,NNE,18.4,-,N/A,,Mostly Cloudy,30,2013-02-26 19:53:00
11:53 AM,35.1,10.0,35,29.44,10.0,NNE,12.7,20.7,N/A,,Mostly Cloudy,30,2013-02-26 20:53:00
12:53 PM,37.0,12.0,36,29.42,10.0,NNE,10.4,-,N/A,,Mostly Cloudy,30,2013-02-26 21:53:00
1:53 PM,36.0,10.9,36,29.42,10.0,NNE,15.0,24.2,N/A,,Mostly Cloudy,30,2013-02-26 22:53:00
2:53 PM,36.0,12.9,39,29.39,10.0,NE,15.0,-,N/A,,Scattered Clouds,40,2013-02-26 23:53:00
3:53 PM,35.1,12.0,39,29.39,10.0,NNE,15.0,-,N/A,,Scattered Clouds,20,2013-02-27 00:53:00
4:53 PM,35.1,12.0,39,29.37,10.0,NE,16.1,21.9,N/A,,Scattered Clouds,40,2013-02-27 01:53:00
5:53 PM,33.1,12.0,42,29.37,10.0,NNE,13.8,-,N/A,,Scattered Clouds,20,2013-02-27 02:53:00
6:53 PM,32.0,10.9,42,29.36,10.0,NNE,13.8,-,N/A,,Clear,30,2013-02-27 03:53:00
7:53 PM,30.9,10.0,42,29.37,10.0,NNE,10.4,-,N/A,,Scattered Clouds,30,2013-02-27 04:53:00
8:53 PM,30.9,9.0,40,29.36,10.0,NE,12.7,-,N/A,,Partly Cloudy,40,2013-02-27 05:53:00
9:53 PM,30.0,7.0,38,29.35,10.0,NNE,13.8,-,N/A,,Clear,30,2013-02-27 06:53:00
10:53 PM,30.0,10.0,43,29.33,10.0,NNE,17.3,-,N/A,,Clear,20,2013-02-27 07:53:00
11:53 PM,30.9,10.0,42,29.33,10.0,NNW,6.9,-,N/A,,Clear,330,2013-02-27 08:53:00